TimeCDT,TemperatureF,Dew PointF,Humidity,Sea Level PressureIn,VisibilityMPH,Wind Direction,Wind SpeedMPH,Gust SpeedMPH,PrecipitationIn,Events,Conditions,WindDirDegrees,DateUTC
12:15 AM,85.1,61.7,45,29.99,10.0,SE,10.4,-,N/A,,Clear,130,2013-09-18 05:15:00
12:35 AM,84.4,61.9,47,29.99,10.0,SE,8.1,-,N/A,,Scattered Clouds,130,2013-09-18 05:35:00
12:55 AM,84.2,62.1,47,30.00,10.0,SE,8.1,-,N/A,,Scattered Clouds,140,2013-09-18 05:55:00
1:15 AM,84.2,61.9,47,30.00,10.0,SE,8.1,-,N/A,,Mostly Cloudy,140,2013-09-18 06:15:00
1:35 AM,84.0,62.2,48,30.00,10.0,SSE,8.1,-,N/A,,Overcast,150,2013-09-18 06:35:00
1:55 AM,83.5,62.2,49,30.00,10.0,SE,4.6,-,N/A,,Mostly Cloudy,140,2013-09-18 06:55:00
2:15 AM,83.5,62.1,48,29.99,10.0,SE,8.1,-,N/A,,Scattered Clouds,140,2013-09-18 07:15:00
2:35 AM,82.9,62.1,49,29.99,10.0,SSE,6.9,-,N/A,,Clear,150,2013-09-18 07:35:00
2:55 AM,82.6,62.1,50,29.98,10.0,SE,6.9,-,N/A,,Clear,130,2013-09-18 07:55:00
3:15 AM,82.4,62.2,50,29.98,10.0,SE,5.8,-,N/A,,Clear,140,2013-09-18 08:15:00
3:35 AM,81.5,62.4,52,29.98,10.0,South,4.6,-,N/A,,Clear,170,2013-09-18 08:35:00
3:55 AM,82.8,62.1,49,29.98,10.0,South,5.8,-,N/A,,Clear,180,2013-09-18 08:55:00
4:15 AM,81.5,62.6,53,29.97,10.0,South,5.8,-,N/A,,Clear,170,2013-09-18 09:15:00
4:35 AM,80.8,62.6,54,29.97,10.0,South,5.8,-,N/A,,Clear,180,2013-09-18 09:35:00
4:55 AM,80.8,62.6,54,29.96,10.0,South,5.8,-,N/A,,Clear,170,2013-09-18 09:55:00
5:15 AM,80.6,62.6,54,29.97,10.0,South,5.8,-,N/A,,Clear,170,2013-09-18 10:15:00
5:35 AM,79.7,63.0,56,29.96,10.0,SSE,6.9,-,N/A,,Clear,160,2013-09-18 10:35:00
5:53 AM,78.8,64.4,61,29.97,13.0,SSE,5.8,-,N/A,,Mostly Cloudy,160,2013-09-18 10:53:00
5:55 AM,79.2,63.3,58,29.97,10.0,South,4.6,-,N/A,,Clear,170,2013-09-18 10:55:00
6:49 AM,80.6,66.2,61,29.98,13.0,South,5.8,-,N/A,,Mostly Cloudy,180,2013-09-18 11:49:00
7:48 AM,80.6,66.2,61,30.00,13.0,SSE,6.9,-,N/A,,Mostly Cloudy,150,2013-09-18 12:48:00
8:47 AM,82.4,68.0,62,30.01,13.0,SSE,5.8,-,N/A,,Mostly Cloudy,160,2013-09-18 13:47:00
9:49 AM,84.2,66.2,55,30.03,13.0,South,5.8,-,N/A,,Mostly Cloudy,170,2013-09-18 14:49:00
10:47 AM,86.0,68.0,55,30.04,13.0,SSW,8.1,-,N/A,,Mostly Cloudy,210,2013-09-18 15:47:00
11:47 AM,89.6,64.4,43,30.02,13.0,South,11.5,18.4,N/A,,Scattered Clouds,180,2013-09-18 16:47:00
12:48 PM,93.2,60.8,34,30.00,13.0,South,11.5,16.1,N/A,,Mostly Cloudy,170,2013-09-18 17:48:00
1:47 PM,93.2,62.6,36,29.98,13.0,SSE,16.1,23.0,N/A,,Mostly Cloudy,160,2013-09-18 18:47:00
2:47 PM,93.2,60.8,34,29.95,13.0,SE,9.2,20.7,N/A,,Mostly Cloudy,140,2013-09-18 19:47:00
3:47 PM,95.0,59.0,30,29.92,13.0,South,11.5,19.6,N/A,,Mostly Cloudy,180,2013-09-18 20:47:00
4:50 PM,95.0,59.0,30,29.90,13.0,South,11.5,19.6,N/A,,Mostly Cloudy,180,2013-09-18 21:50:00
5:47 PM,95.0,53.6,25,29.89,13.0,SSE,16.1,20.7,N/A,,Scattered Clouds,150,2013-09-18 22:47:00
6:47 PM,93.2,57.2,30,29.89,13.0,SSE,11.5,-,N/A,,Scattered Clouds,150,2013-09-18 23:47:00
7:47 PM,91.4,57.2,31,29.89,13.0,ESE,9.2,-,N/A,,Scattered Clouds,120,2013-09-19 00:47:00
8:47 PM,89.6,57.2,33,29.91,13.0,SE,9.2,-,N/A,,Scattered Clouds,130,2013-09-19 01:47:00
10:15 PM,88.5,55.8,33,29.93,10.0,SSE,11.5,-,N/A,,Clear,160,2013-09-19 03:15:00
10:35 PM,88.7,55.8,33,29.94,10.0,South,9.2,-,N/A,,Clear,170,2013-09-19 03:35:00
10:55 PM,88.0,56.3,34,29.94,10.0,SSE,11.5,-,N/A,,Clear,160,2013-09-19 03:55:00
11:15 PM,87.8,56.3,34,29.94,10.0,SSE,9.2,-,N/A,,Clear,150,2013-09-19 04:15:00
11:35 PM,87.8,56.7,35,29.94,10.0,SSE,13.8,17.3,N/A,,Clear,160,2013-09-19 04:35:00
11:55 PM,87.6,57.2,35,29.93,10.0,SSE,13.8,17.3,N/A,,Clear,160,2013-09-19 04:55:00